EB2GLU-13 Weather Reports


time (UTC)temp
F
wind
direction
speed
knots
gust
knots
rain 1hr
in
rain 24hr
in
rain mn
in
humidity
%
barometer
mb
20260510162118 70 1 0.0 0.9 0.00 0.33 0.33 74 1008.4
20260510160848 68 1 0.0 1.7 0.00 0.33 0.33 73 1008.5
20260510155618 65 1 0.0 2.6 0.00 0.33 0.33 79 1008.7
20260510154348 63 1 0.0 2.6 0.00 0.33 0.33 89 1008.9
20260510151847 62 157 0.9 3.5 0.02 0.33 0.33 93 1009.0
20260510150617 59 181 1.7 3.5 0.07 0.33 0.33 94 1008.8
20260510145347 58 203 0.0 1.7 0.12 0.33 0.33 94 1010.0
20260510144117 57 203 0.0 3.5 0.33 0.33 0.33 94 1010.2
20260510142847 58 202 0.0 1.7 0.33 0.33 0.33 94 1010.5
20260510141617 57 203 0.0 0.9 0.28 0.28 0.28 94 1010.6
20260510140347 57 233 0.0 2.6 0.25 0.25 0.25 92 1011.2
20260510135117 59 18 0.0 13.0 0.18 0.18 0.18 85 1011.0
20260510133847 69 23 0.9 3.5 0.00 0.00 0.00 62 1008.6
20260510132617 72 23 0.0 2.6 0.00 0.00 0.00 47 1007.8
20260510131347 74 22 0.0 1.7 0.00 0.00 0.00 49 1008.0
20260510130117 73 15 4.3 7.0 0.00 0.00 0.00 45 1007.7
20260510124847 74 167 2.6 3.5 0.00 0.00 0.00 45 1007.6
20260510123617 77 181 0.0 3.5 0.00 0.00 0.00 43 1007.6
20260510122347 78 181 0.9 7.0 0.00 0.00 0.00 40 1008.0
20260510121117 76 184 1.7 5.2 0.00 0.00 0.00 41 1008.0
20260510115847 80 178 0.0 3.5 0.00 0.00 0.00 38 1008.5
20260510114617 80 169 1.7 5.2 0.00 0.00 0.00 39 1008.2
20260510113347 81 69 0.0 3.5 0.00 0.00 0.00 40 1008.4
20260510112117 79 15 0.9 5.2 0.00 0.00 0.00 41 1008.7
20260510110847 79 171 1.7 5.2 0.00 0.00 0.00 41 1009.1
20260510105617 76 139 0.0 2.6 0.00 0.00 0.00 45 1009.2
20260510104347 75 121 0.0 2.6 0.00 0.00 0.00 46 1009.2
20260510103117 77 138 0.0 5.2 0.00 0.00 0.00 45 1009.5
20260510101847 70 1 1.7 3.5 0.00 0.00 0.00 51 1009.4
20260510100617 72 7 0.0 5.2 0.00 0.00 0.00 50 1009.6
20260510095347 72 18 0.0 7.0 0.00 0.00 0.00 50 1009.6
20260510094117 72 38 0.0 5.2 0.00 0.00 0.00 50 1009.8
20260510092847 71 351 1.7 8.7 0.00 0.00 0.00 50 1009.6
20260510091617 72 5 0.0 7.8 0.00 0.00 0.00 49 1009.8
20260510090347 71 6 0.0 5.2 0.00 0.00 0.00 50 1009.6
20260510085117 71 24 0.0 7.8 0.00 0.00 0.00 52 1009.5
20260510083847 69 356 1.7 11.3 0.00 0.00 0.00 53 1009.6
20260510082619 69 16 0.0 7.0 0.00 0.00 0.00 53 1009.6
20260510081346 66 175 0.9 5.2 0.00 0.00 0.00 59 1009.5
20260510080116 67 164 0.0 3.5 0.00 0.00 0.00 61 1009.3
20260510074847 69 176 0.0 3.5 0.00 0.00 0.00 55 1009.5
20260510073616 68 169 0.9 7.0 0.00 0.00 0.00 55 1009.3
20260510072346 67 177 0.0 7.8 0.00 0.00 0.00 62 1009.0
20260510071116 65 175 4.3 7.8 0.00 0.00 0.00 64 1009.2
20260510065846 66 168 2.6 7.0 0.00 0.00 0.00 64 1009.2
20260510064616 65 158 1.7 10.4 0.00 0.00 0.00 66 1009.1
20260510063347 64 168 2.6 8.7 0.00 0.00 0.00 68 1008.7
20260510062116 63 147 5.2 7.8 0.00 0.00 0.00 69 1008.7
20260510060846 60 181 0.0 2.6 0.00 0.00 0.00 76 1008.7
20260510055616 57 181 0.0 2.6 0.00 0.00 0.00 81 1008.6
20260510054346 57 181 0.0 1.7 0.00 0.00 0.00 81 1008.5
20260510053116 57 181 0.0 1.7 0.00 0.00 0.00 80 1008.3
20260510051846 56 181 0.0 1.7 0.00 0.00 0.00 82 1008.5
20260510050616 57 175 0.0 1.7 0.00 0.00 0.00 82 1008.3
20260510045346 57 173 2.6 3.5 0.00 0.00 0.00 81 1008.5
20260510044116 57 181 0.0 0.9 0.00 0.00 0.00 82 1008.3
20260510042846 58 181 0.0 1.7 0.00 0.00 0.00 81 1008.5
20260510041616 58 181 0.0 1.7 0.00 0.00 0.00 81 1008.3
20260510040346 58 181 0.0 1.7 0.00 0.00 0.00 81 1008.7
20260510035116 59 181 0.0 2.6 0.00 0.00 0.00 79 1008.6
20260510033846 59 181 0.0 1.7 0.00 0.00 0.00 79 1008.6
20260510032616 60 181 0.0 1.7 0.00 0.00 0.00 77 1008.5
20260510031346 61 181 0.0 2.6 0.00 0.00 0.00 75 1008.4
20260510030116 62 181 0.0 3.5 0.00 0.00 0.00 73 1008.4
20260510024846 62 165 1.7 5.2 0.00 0.00 0.00 72 1008.2
20260510023616 62 165 2.6 7.8 0.00 0.00 0.00 71 1008.2
20260510022346 62 177 0.9 2.6 0.00 0.00 0.00 71 1008.4
20260510021116 63 181 1.7 5.2 0.00 0.00 0.00 71 1008.1
20260510015846 62 181 0.0 2.6 0.00 0.00 0.00 74 1008.4
20260510014616 62 181 0.0 3.5 0.00 0.00 0.00 72 1008.4
20260510013346 61 199 0.0 2.6 0.00 0.00 0.00 76 1008.3
20260510012116 62 179 0.0 7.0 0.00 0.00 0.00 74 1008.5
20260510010846 61 181 0.0 1.7 0.00 0.00 0.00 75 1008.7
20260510005616 62 203 0.9 3.5 0.00 0.00 0.00 72 1008.7
20260510004346 62 181 0.9 3.5 0.00 0.00 0.00 71 1008.8
20260510003116 63 167 4.3 8.7 0.00 0.00 0.00 69 1008.9
20260510001846 63 177 3.5 7.8 0.00 0.00 0.00 71 1008.4
20260510000615 62 181 0.9 3.5 0.00 0.00 0.00 72 1008.8
20260509235346 62 181 0.0 2.6 0.00 0.00 0.00 71 1008.7
20260509234115 63 181 0.9 2.6 0.00 0.00 0.00 68 1008.4
20260509232845 64 178 0.0 7.0 0.00 0.00 0.00 67 1008.7
20260509231616 64 172 0.0 5.2 0.00 0.00 0.00 66 1008.5
20260509230345 65 63 0.9 10.4 0.00 0.00 0.00 65 1008.7
20260509225116 64 174 2.6 8.7 0.00 0.00 0.00 69 1008.6
20260509223845 63 181 0.0 3.5 0.00 0.00 0.00 73 1008.7
20260509222615 65 176 2.6 7.0 0.00 0.00 0.00 67 1008.6
20260509221345 64 173 0.9 5.2 0.00 0.00 0.00 69 1008.7
20260509220115 64 169 0.9 7.8 0.00 0.00 0.00 69 1008.6
20260509214845 65 179 0.9 5.2 0.00 0.00 0.00 69 1008.9
20260509213615 65 170 2.6 8.7 0.00 0.00 0.00 67 1008.7
20260509212345 65 164 2.6 11.3 0.00 0.00 0.00 67 1008.8
20260509211115 64 164 1.7 7.0 0.00 0.00 0.00 70 1008.8
20260509205845 65 155 1.7 7.0 0.00 0.00 0.00 68 1008.7
20260509204615 65 141 1.7 9.6 0.00 0.00 0.00 66 1008.7
20260509203345 66 171 2.6 7.8 0.00 0.00 0.00 64 1008.9
20260509202115 66 159 0.9 5.2 0.00 0.00 0.00 65 1008.9
20260509200845 66 167 1.7 7.8 0.00 0.00 0.00 63 1008.3
20260509195615 67 157 4.3 8.7 0.00 0.00 0.00 63 1008.1
20260509194345 67 149 0.9 10.4 0.00 0.00 0.00 63 1007.8
20260509193115 68 150 0.0 5.2 0.00 0.00 0.00 61 1007.8
20260509191845 69 167 4.3 9.6 0.00 0.00 0.00 60 1008.0
20260509190615 69 152 2.6 7.0 0.00 0.00 0.00 61 1007.9
20260509185345 69 155 2.6 10.4 0.00 0.00 0.00 60 1007.8
20260509184115 70 158 5.2 10.4 0.00 0.00 0.00 59 1007.6
20260509182845 70 177 2.6 5.2 0.00 0.00 0.00 60 1007.8
20260509181615 70 148 2.6 5.2 0.00 0.00 0.00 59 1007.6
20260509180345 71 157 2.6 7.8 0.00 0.00 0.00 57 1007.6
20260509175115 71 172 0.9 7.0 0.00 0.00 0.00 55 1007.4
20260509173845 72 173 2.6 10.4 0.00 0.00 0.00 53 1007.3
20260509172615 72 164 2.6 8.7 0.00 0.00 0.00 51 1007.4
20260509171345 73 141 0.9 10.4 0.00 0.00 0.00 50 1007.3
20260509170115 73 124 4.3 13.0 0.00 0.04 0.00 50 1007.5
20260509164845 76 158 0.0 11.3 0.00 0.07 0.00 49 1007.1